Location: Newark
(39.8867°N, 94.3600°W)
Time: 13:46:42
(UTC+00:00)

Hubble Space Telescope - Visible Passes

Search period start: 28 January 2020 00:00
Search period end: 07 February 2020 00:00
Orbit: 536 x 540 km, 28.5° (Epoch: 27 January)

Date Brightness Start Highest point End Pass type
(mag) Time Alt. Az. Time Alt. Az. Time Alt. Az.
31 Jan 3.5 11:47:14 10° S 11:48:29 11° SSE 11:49:44 10° SSE visible
01 Feb 3.3 11:35:59 10° SSW 11:37:44 13° SSE 11:39:34 10° SE visible
02 Feb 3.1 11:26:07 13° S 11:26:59 14° S 11:29:09 10° SE visible
03 Feb 3.1 11:16:11 15° S 11:16:14 15° S 11:18:38 10° SE visible
03 Feb 3.1 12:54:13 10° SW 12:56:43 16° S 12:59:15 10° SSE visible
04 Feb 3.1 11:06:13 15° SSE 11:06:13 15° SSE 11:08:03 10° SE visible
04 Feb 3.1 12:43:38 10° SW 12:45:59 15° S 12:48:20 10° SSE visible
05 Feb 3.3 10:56:12 14° SSE 10:56:12 14° SSE 10:57:24 10° SE visible
05 Feb 3.1 12:33:09 10° SW 12:35:14 14° S 12:37:20 10° SSE visible
06 Feb 3.6 10:46:11 12° SE 10:46:11 12° SE 10:46:42 10° SE visible
06 Feb 3.2 12:22:47 10° SW 12:24:29 12° SSW 12:26:12 10° SSE visible
